SJ-29B

导读

SJ-29B(实践二十九号B星)是中国于2025年12月30日在文昌航天发射场,由长征七号改运载火箭发射入轨的卫星,与实践二十九号A星组成双星任务。该卫星由中国科学院微小卫星创新研究院抓总研制,主要用于开展空间目标探测新技术验证试验,助力中国航天前沿技术探索与空间探测能力提升。

基本信息
目录编号:
67403
目录名称:
SJ-29B
国际标识:
2025-315C
轨道中心:
EARTH
卫星名称:
SJ-29B
卫星全名:
SJ-29B
卫星状态:
在轨 (已飞行166 天)
发射日期:
2025-12-30 UTC
国别 :
中国 (CN)
星等 :
--
轨道信息
数据来源 国际轨道数据 AOE轨道数据
星历时间 2026-06-15T02:21:40+0800
3小时前
查看轨道信息
2026-06-12T02:00:00+0800
3天前
查看轨道信息
半长轴 42165.429km 42165.289km
偏心率 0.0003698 0.000362
轨道倾角 3.390° 3.382°
近地点辐角 33.079° 29.779°
升交点赤经 95.161° 95.238°
平近点角 123.479° 118.341°
近地点 35771.699km 35771.888km
远地点 35802.885km 35802.416km
周期 1436.132分钟 1436.125分钟
每日圈数 1.002693 1.002698
详细信息
使用方式:
暂无
2D轨道图
3D轨道图
轨道高度分析图
轨道倾角分析图
轨道综合分析图
查看轨道综合分析图